Wind_Speed
24 22 19 17 17 17 17 17 18 19 20 20 20 21 21 21 21 22 22 23 24 24 25 26 27 28 30 31 32 33 34 35 35 35 35 34 34 34 33 32 31 30 29 28 28 26 25 24 22 21 20 19 19 19 19 18 19 19 20 20 20 20 21 21 21 21 21 20 19
24 22 20 17 17 18 18 18 19 20 21 21 21 21 21 21 21 22 23 24 24 25 26 27 28 30 31 32 33 34 35 36 36 36 36 35 35 34 34 33 32 31 30 29 28 26 25 23 22 21 20 19 19 19 19 19 19 20 20 20 20 20 20 19 19 19 18 18 17
23 22 21 19 19 19 19 19 21 22 23 22 21 20 21 21 22 22 23 24 26 27 27 28 29 31 32 33 34 35 36 36 37 36 36 35 35 35 35 34 33 32 31 29 28 26 25 24 22 21 20 20 19 19 20 20 20 19 19 19 19 18 17 17 16 17 17 16 16
23 22 21 19 20 20 20 20 22 24 24 22 21 21 21 21 22 23 24 25 27 27 28 29 30 31 32 34 36 37 37 37 37 36 36 36 36 36 36 35 34 33 32 30 28 27 26 24 23 21 20 21 21 20 20 20 19 19 18 18 17 17 16 16 16 16 16 16 17
23 22 20 19 20 21 21 21 23 24 24 22 22 22 22 23 23 24 25 27 27 27 29 30 30 31 33 35 37 38 38 38 37 36 36 36 36 37 36 36 35 34 32 31 29 27 26 24 22 21 20 20 19 19 19 19 19 19 18 18 17 16 16 16 16 17 17 17 18
23 22 20 20 20 21 21 22 24 25 24 23 23 24 25 25 25 26 27 28 29 29 30 30 30 32 34 36 37 38 38 38 38 37 37 38 38 38 38 37 36 35 33 31 29 27 25 23 22 20 20 19 18 18 18 19 18 18 17 17 17 17 16 17 17 18 18 18 19
22 21 20 20 21 21 22 24 25 25 24 23 24 26 27 27 27 28 29 29 29 30 30 30 32 34 35 36 37 38 38 39 39 39 39 39 39 40 39 38 37 36 33 31 29 27 25 22 20 19 19 17 17 17 17 18 17 17 17 17 17 17 18 18 19 19 19 19 20
20 20 20 20 21 22 23 25 25 24 23 23 24 27 28 29 29 29 30 29 29 30 31 31 33 34 35 36 37 38 38 39 40 41 41 40 41 41 41 39 38 36 34 31 28 25 23 21 19 18 17 17 17 17 17 17 17 18 18 19 19 19 19 19 19 19 19 20 21
20 20 20 21 22 23 24 25 24 23 23 24 26 27 28 28 29 29 30 29 29 31 32 32 34 35 35 36 37 37 38 39 40 41 42 42 42 42 42 41 39 36 33 29 26 23 21 20 18 17 16 17 16 17 18 18 18 19 19 20 20 19 19 20 20 20 20 20 21
20 20 21 22 23 24 25 25 23 23 23 24 26 28 29 28 29 29 29 29 30 32 32 33 34 35 35 36 36 37 38 39 40 41 42 43 44 44 44 42 40 36 31 25 21 19 18 17 16 16 16 16 17 17 18 18 19 19 19 19 19 19 20 20 20 20 20 20 20
20 20 21 22 24 25 25 24 23 22 23 25 27 28 29 29 30 30 29 30 31 32 33 33 33 34 35 35 36 37 38 38 39 40 42 43 44 45 45 43 41 37 31 24 18 14 13 13 14 14 15 15 15 16 17 17 18 18 19 19 19 20 20 20 20 19 19 19 18
20 20 21 23 24 24 24 23 23 23 24 26 28 29 29 30 30 30 30 31 32 32 32 33 33 34 34 35 36 37 38 38 39 40 41 42 43 44 44 42 41 39 35 30 23 16 11 9 10 12 13 13 14 15 16 16 17 18 18 19 19 19 20 20 20 19 18 18 18
20 20 22 24 24 23 23 23 23 24 25 27 28 29 29 30 30 30 30 31 32 32 32 33 33 33 34 35 36 37 37 38 39 39 40 42 43 43 42 40 39 39 38 35 31 25 18 13 10 10 11 11 12 13 14 15 16 17 18 18 18 19 19 19 18 18 18 17 17
20 21 22 23 23 23 23 23 23 24 26 28 29 29 30 30 30 30 30 31 32 32 32 33 34 34 34 35 36 36 37 37 38 39 41 42 43 43 41 37 37 38 39 38 36 33 28 22 17 13 11 11 11 11 12 13 13 14 15 16 17 17 17 17 17 17 17 17 16
20 21 22 23 23 23 23 24 24 25 27 28 29 29 30 30 31 31 31 31 32 32 32 33 34 34 34 35 36 36 36 36 37 39 40 42 43 43 40 36 34 37 40 39 39 37 34 30 26 22 19 16 15 14 14 14 13 14 14 15 15 15 16 16 17 17 16 16 15
21 21 22 22 23 23 24 25 25 26 27 28 29 30 30 30 31 31 31 31 31 32 33 34 34 34 35 35 36 36 35 36 37 38 39 41 43 43 41 36 32 35 39 38 39 38 37 35 32 29 26 24 22 21 20 19 18 17 17 16 16 16 16 16 17 18 17 17 16
21 22 22 22 23 24 25 25 26 27 28 29 29 30 30 31 31 31 31 31 32 32 34 35 34 34 34 35 35 35 35 36 36 37 38 39 40 41 41 37 31 33 37 38 37 36 36 36 34 33 30 29 27 26 25 23 22 21 21 20 20 20 19 19 20 20 20 20 21
22 22 22 23 23 24 25 26 27 27 28 29 30 30 31 31 32 32 32 32 32 33 34 35 34 34 34 35 35 35 35 35 35 36 37 37 38 39 39 37 32 31 34 37 35 34 33 33 33 32 32 30 29 28 27 26 25 24 24 23 24 24 24 24 25 25 25 25 25
22 22 22 23 23 24 25 26 27 28 28 29 30 30 31 32 32 32 32 32 32 33 33 34 34 34 34 34 34 34 34 34 35 36 36 36 36 36 36 36 32 29 30 34 33 31 30 30 30 30 30 30 29 29 28 27 27 26 26 26 27 27 28 28 28 29 29 29 28
22 22 22 22 23 24 25 26 27 28 28 29 30 31 31 31 31 31 31 32 32 32 33 34 34 34 34 34 34 34 34 33 34 35 36 36 36 35 34 33 31 27 27 31 31 30 28 27 27 27 28 28 28 28 28 27 27 26 26 26 27 27 27 28 28 29 29 30 30
22 22 22 22 23 24 25 26 27 27 28 29 30 30 30 30 30 30 31 31 31 31 32 33 33 33 33 33 34 34 33 33 34 34 35 35 35 34 33 32 30 27 25 28 30 30 29 27 26 26 26 27 27 27 27 27 26 26 25 25 25 25 25 26 26 27 28 29 30
22 22 22 22 23 24 25 26 27 27 28 29 29 29 30 30 30 30 29 29 30 31 32 32 33 33 33 33 33 33 33 33 33 34 34 34 34 33 33 32 30 28 26 27 28 30 30 30 28 27 26 26 27 27 27 27 27 26 26 25 24 24 24 25 25 26 27 28 30
21 21 22 22 23 24 25 26 27 27 28 28 29 29 29 29 29 29 28 29 29 30 31 31 32 32 32 32 33 33 33 33 33 33 34 34 33 33 32 31 30 28 28 28 28 28 29 30 31 29 28 27 27 27 27 27 27 27 27 26 26 25 25 25 25 25 26 27 30
21 21 22 22 23 24 25 26 27 27 28 28 28 28 28 28 28 28 28 28 28 29 30 30 31 31 32 32 33 33 33 32 33 33 34 34 33 33 32 31 28 27 27 28 28 27 27 28 31 31 30 28 27 27 27 27 27 28 28 27 27 27 26 26 25 25 25 27 29
21 21 21 22 23 24 25 26 27 27 28 28 28 28 28 28 28 28 28 28 28 28 29 30 30 30 31 32 32 33 33 32 33 33 34 34 33 33 32 31 28 26 25 26 27 27 27 27 29 31 32 31 29 28 27 27 27 28 27 27 27 27 27 27 27 27 26 26 28
21 21 22 22 23 24 25 26 27 27 27 27 27 27 27 27 27 27 27 27 27 28 28 29 29 30 30 31 32 32 33 33 33 33 33 33 33 32 32 32 30 26 23 24 26 27 27 27 27 30 32 33 31 29 28 28 28 28 27 27 27 28 28 28 28 28 28 27 26
21 21 22 22 23 24 25 26 27 27 27 27 27 27 27 27 27 27 27 27 27 27 27 28 28 29 29 30 30 31 32 32 33 33 33 33 33 32 31 31 31 27 22 22 25 27 27 28 27 29 31 33 33 31 29 28 28 28 28 28 27 28 28 28 28 28 28 28 26
21 21 22 22 23 24 25 26 27 27 27 27 27 26 26 26 27 27 27 27 27 27 27 28 28 28 28 29 29 30 30 31 31 32 33 33 32 32 31 31 32 28 23 21 23 26 27 27 27 28 30 32 33 32 30 29 28 28 28 28 28 28 28 28 27 27 28 28 27
20 21 21 22 23 24 25 26 27 27 27 27 26 25 25 26 26 27 27 27 27 27 27 27 27 27 27 28 28 29 29 29 30 31 32 32 32 32 31 31 32 30 24 21 22 24 26 26 27 27 29 32 33 33 32 30 28 28 27 27 28 28 27 28 27 27 28 28 27
20 20 21 22 23 23 24 25 26 27 27 27 26 25 25 25 26 26 26 26 26 26 26 26 26 26 27 27 27 28 28 28 29 29 30 31 32 32 32 32 32 31 27 23 22 23 24 25 26 26 28 31 33 33 33 31 30 28 27 27 27 28 27 28 27 28 28 28 28
20 20 21 22 22 23 24 25 26 26 27 26 25 24 24 24 25 25 25 25 25 25 25 25 25 25 26 26 26 27 27 27 27 28 29 30 30 31 31 32 32 32 30 27 22 21 22 24 25 25 27 31 33 33 33 32 31 29 27 26 27 27 27 27 27 27 28 28 29
20 20 21 22 22 23 23 24 25 26 27 26 25 24 23 23 24 24 24 24 24 25 25 25 25 25 26 26 26 26 26 27 27 27 27 28 29 30 30 30 31 31 31 30 25 21 20 22 23 24 26 30 32 33 33 33 32 31 29 27 26 26 26 27 27 27 27 28 29
20 21 21 22 23 23 23 24 25 26 26 26 25 24 23 22 22 23 23 23 24 24 24 24 24 25 26 26 26 26 26 26 26 26 26 27 28 28 29 29 30 30 30 30 28 23 19 19 21 23 26 29 31 32 33 33 33 32 31 28 26 26 26 26 27 27 27 27 28
21 21 22 22 23 23 23 24 24 25 26 26 25 23 22 22 22 22 23 23 23 23 23 23 23 24 24 25 26 26 26 26 26 25 25 25 26 27 28 28 29 29 29 29 29 26 21 17 19 22 25 28 30 31 32 33 33 33 32 30 28 26 26 26 26 26 27 27 27
21 22 22 22 23 23 24 24 25 25 26 26 25 23 22 21 21 21 22 22 22 22 22 21 21 22 23 24 25 26 26 27 26 25 24 24 25 26 27 27 28 28 28 29 29 28 24 18 17 20 24 28 30 31 31 32 33 33 33 32 30 27 26 26 26 26 26 26 27
21 21 22 22 23 23 24 24 25 25 26 26 25 23 21 20 20 20 21 21 21 21 21 21 21 22 23 24 25 26 27 27 27 26 24 23 23 24 25 26 27 27 28 28 28 29 27 21 16 18 24 27 29 30 30 31 31 32 33 33 31 29 26 26 26 26 26 26 26
20 21 21 22 22 23 24 24 25 25 26 25 24 22 21 20 20 20 20 21 21 22 22 21 21 21 23 24 25 26 26 27 27 26 25 24 23 23 23 24 25 26 26 27 28 29 28 25 17 17 22 25 27 28 29 30 30 31 33 33 32 30 27 25 25 25 25 24 24
19 20 20 21 22 23 23 24 25 25 25 25 23 21 20 19 19 20 20 20 21 22 22 21 20 21 22 23 24 25 26 26 26 26 26 25 23 22 22 23 23 24 24 26 28 29 29 27 21 18 19 23 26 27 28 28 29 30 31 32 32 31 28 26 25 24 24 23 22
19 19 20 21 22 22 23 24 24 25 25 24 22 20 19 19 19 19 20 20 21 21 21 20 19 19 20 22 24 25 25 26 26 26 26 25 24 23 22 22 22 22 22 23 26 27 28 28 26 20 18 21 24 26 27 27 28 29 30 31 32 31 29 26 25 24 23 23 22
18 19 19 20 21 22 23 24 24 24 24 23 22 20 19 18 18 19 19 19 20 20 20 19 18 18 19 21 23 24 25 25 25 25 26 25 24 23 22 21 21 21 21 21 23 25 27 28 27 23 19 20 22 24 26 26 27 28 29 30 30 30 28 27 25 24 23 22 22
18 18 19 20 21 22 22 23 24 24 24 23 21 19 18 17 17 18 18 19 19 19 19 18 17 17 19 21 23 24 25 26 25 25 25 25 24 23 21 21 21 20 20 20 21 23 24 26 27 26 23 20 20 22 24 25 26 26 27 28 29 28 27 26 25 24 23 22 22
Wind_Direction
5 3 359 356 354 351 348 346 344 343 342 340 338 337 336 335 332 332 331 330 329 326 324 323 323 322 322 322 321 319 318 317 316 315 314 312 311 309 308 306 303 301 299 299 298 298 297 297 297 297 297 295 293 292 290 289 288 288 288 288 288 289 290 290 289 290 290 290 290
6 4 1 356 353 351 348 346 344 343 342 341 339 338 338 336 334 331 329 329 328 326 325 324 323 323 322 321 320 319 317 316 316 315 314 312 311 310 308 306 304 301 298 296 295 294 294 294 293 293 294 293 291 290 289 288 287 286 287 288 289 290 291 291 291 292 294 295 296
6 5 2 357 354 351 349 347 344 343 342 341 340 339 337 336 334 332 330 329 328 327 325 324 324 324 323 322 320 319 318 317 316 315 313 312 311 309 308 306 304 302 300 297 294 292 290 290 289 290 290 291 288 287 287 286 286 286 287 288 290 291 292 293 294 296 298 299 299
7 5 1 356 354 352 349 346 344 344 343 342 341 339 337 335 333 331 330 328 328 328 326 325 324 324 323 322 321 320 319 319 318 316 314 313 311 309 308 306 305 303 301 298 295 292 289 287 286 285 285 285 285 284 284 286 287 287 287 289 290 291 291 293 295 297 298 297 297
7 5 0 355 353 351 349 346 345 345 345 343 341 339 338 337 335 333 331 331 329 327 326 326 325 324 324 323 322 322 321 321 320 318 316 313 312 310 309 307 305 303 301 300 296 293 290 287 284 282 280 280 280 281 282 284 285 286 287 290 290 290 291 292 294 295 296 295 294
5 3 359 355 353 351 348 347 347 348 348 345 343 341 339 337 335 334 333 331 330 329 329 328 327 326 326 324 324 324 323 322 322 320 318 316 314 312 310 308 306 303 301 299 296 294 292 288 284 282 281 279 279 280 283 285 286 286 287 289 289 289 289 290 292 293 294 294 293
3 1 357 355 353 350 348 347 349 349 348 346 343 341 339 337 336 334 332 331 331 331 330 330 329 328 327 327 326 326 325 325 324 323 322 319 318 316 314 311 308 305 302 298 296 294 292 289 284 282 282 281 281 282 284 286 286 286 286 287 288 289 289 290 291 293 293 293 293
2 359 357 354 352 349 348 349 350 349 348 345 342 341 340 339 338 336 335 335 333 332 331 331 331 330 329 329 329 328 328 327 327 327 326 324 322 321 319 317 313 309 305 300 295 292 290 288 284 281 280 280 282 283 284 285 286 286 286 287 289 290 290 291 292 293 294 294 295
359 358 356 353 351 350 350 351 351 349 347 345 343 342 341 340 339 338 337 336 334 333 333 333 332 332 332 332 331 331 331 331 331 331 331 330 329 328 327 326 323 319 313 307 299 292 288 286 282 279 279 281 281 282 284 286 287 288 289 290 291 293 293 294 294 294 295 296 296
357 355 354 352 351 351 351 352 350 348 346 345 344 344 343 342 341 340 338 336 335 335 335 335 335 335 335 335 335 335 335 334 334 334 335 336 336 336 336 336 337 336 331 323 311 299 289 282 278 276 277 278 280 283 286 289 290 291 292 294 294 295 296 297 297 297 297 297 298
356 354 353 352 352 353 353 352 350 348 347 345 346 346 345 344 343 341 340 338 338 337 337 337 337 337 337 337 337 338 338 337 337 338 339 340 342 343 344 348 353 357 359 356 344 323 301 285 279 278 279 281 283 286 289 292 293 294 294 296 297 297 299 300 302 301 300 300 301
355 353 352 352 353 354 353 352 350 348 348 347 347 347 346 345 344 343 342 341 340 340 339 340 340 340 340 340 340 340 341 341 341 342 343 344 346 348 351 358 6 13 18 21 19 10 349 319 299 291 290 291 291 291 292 295 296 297 298 300 301 302 302 305 307 308 307 306 305
355 353 352 354 355 355 353 351 350 349 349 349 349 348 347 346 345 345 344 344 343 342 342 342 342 342 342 342 343 344 344 344 345 346 347 348 350 352 357 4 14 21 26 30 32 32 26 13 349 325 312 308 304 302 301 302 302 302 303 305 307 308 310 313 317 318 317 314 310
355 354 353 355 356 355 353 351 350 349 349 350 350 349 348 347 347 347 346 346 345 344 343 344 344 345 345 344 345 346 347 348 349 350 351 353 354 356 360 8 18 25 30 33 36 38 37 34 26 15 359 345 336 330 326 323 319 316 315 316 317 319 323 328 332 333 330 326 321
356 355 354 355 355 354 353 352 351 350 350 350 350 350 349 348 348 348 348 348 347 346 345 345 346 347 347 348 348 349 350 352 353 353 355 357 358 359 2 9 22 29 32 35 38 39 40 39 38 35 30 23 17 12 7 3 356 349 344 340 339 342 345 348 350 351 349 345 339
357 356 355 355 355 355 354 353 352 351 350 350 351 351 350 350 350 350 350 349 348 348 347 347 348 348 349 351 352 352 353 355 357 357 358 360 1 1 3 9 22 30 32 35 38 40 41 41 42 41 40 38 36 34 31 29 24 18 15 12 10 9 9 7 7 7 8 6 1
358 357 356 356 356 356 355 354 353 352 352 352 352 352 352 352 352 352 351 351 350 349 349 350 350 350 351 353 355 356 356 357 358 359 359 1 2 3 5 7 17 27 31 34 36 39 40 41 43 43 43 43 42 41 39 37 35 32 30 29 27 25 22 19 17 17 16 15 13
358 357 357 357 356 356 355 355 354 353 353 353 353 353 354 354 354 353 353 353 353 352 351 351 352 352 353 354 356 357 358 358 359 360 0 1 3 6 8 8 14 22 28 30 34 37 39 40 41 42 43 43 42 41 40 39 37 35 33 31 29 27 25 23 21 20 18 15 13
359 357 357 357 356 356 355 354 354 353 353 354 354 355 356 356 356 355 355 355 355 355 353 352 353 354 355 356 357 359 360 359 0 1 2 4 5 8 10 11 13 19 24 26 29 33 36 39 40 41 41 41 41 40 39 38 36 34 32 29 28 27 25 24 23 22 20 17 14
359 357 356 356 355 355 354 354 354 354 354 355 356 356 357 358 358 357 356 356 356 357 356 354 354 354 355 357 358 360 1 2 2 3 4 6 7 9 11 13 14 18 22 24 26 28 31 35 38 40 40 40 39 39 38 37 36 35 33 31 29 28 26 25 24 23 21 19 16
360 358 356 355 355 354 354 353 354 354 355 356 357 357 358 359 359 358 357 357 358 358 358 356 355 355 355 356 357 359 1 3 4 4 5 7 7 8 10 13 16 20 23 24 24 25 27 30 34 38 39 39 39 38 37 36 36 35 34 32 31 29 27 25 24 23 21 19 16
360 358 356 355 355 354 354 354 355 355 356 357 358 358 359 360 360 359 359 359 359 359 358 357 356 355 355 356 357 358 1 3 5 6 7 8 8 8 10 13 19 24 26 26 25 24 25 27 30 34 36 37 37 36 36 35 34 34 33 32 31 29 27 26 24 22 20 18 15
360 358 356 355 354 354 355 355 356 356 357 357 358 359 360 0 0 1 1 0 0 360 359 358 357 357 356 357 358 359 1 3 5 7 8 8 8 7 9 12 19 25 28 28 27 27 26 26 28 31 33 34 34 33 33 33 32 31 30 29 28 26 25 25 23 22 20 18 15
360 358 356 354 354 355 356 357 357 357 357 357 358 359 360 0 1 1 1 1 1 0 359 358 358 358 358 359 0 1 1 1 2 4 6 8 7 6 6 9 16 24 29 30 30 31 31 29 28 29 31 32 32 31 31 30 29 28 27 25 24 22 22 22 21 20 19 17 15
359 358 356 355 355 356 357 358 357 357 356 357 358 359 360 0 1 1 1 2 1 0 359 358 358 358 358 359 1 2 2 2 1 2 3 4 5 4 4 5 10 20 29 32 33 34 35 34 31 30 30 32 31 30 29 29 27 26 24 23 20 18 17 17 17 17 16 16 15
358 357 356 356 357 357 358 358 357 356 356 356 357 358 359 0 1 1 2 3 2 0 359 358 357 357 357 358 0 2 3 3 2 1 1 2 3 3 2 3 5 14 26 34 35 36 36 36 34 32 31 31 31 30 28 27 26 25 23 21 19 17 15 13 12 12 13 14 14
357 356 356 356 357 358 358 358 357 356 356 356 357 358 358 360 1 2 3 3 2 1 359 357 356 356 356 357 359 0 2 3 2 2 2 2 2 1 2 2 3 7 19 34 38 38 37 36 35 33 31 30 31 30 28 26 25 24 23 20 18 16 14 12 10 9 10 12 12
356 356 356 356 357 357 358 358 357 356 355 356 356 357 358 360 1 2 3 3 3 1 359 357 356 355 355 356 357 358 0 2 2 2 2 2 2 1 0 0 0 3 13 34 40 40 38 37 35 33 31 29 29 29 28 26 25 24 22 20 18 16 14 12 10 9 9 10 10
355 355 355 355 355 356 356 356 355 355 354 354 355 356 357 360 2 3 3 3 2 0 358 357 356 355 355 355 355 356 358 0 1 2 3 3 2 1 359 358 358 359 9 32 41 41 39 37 36 33 31 28 28 28 27 26 25 23 22 20 18 16 14 12 11 9 9 9 8
355 354 354 354 354 354 354 354 353 353 353 353 353 355 357 360 1 2 2 1 360 358 357 357 357 357 356 355 354 354 355 357 359 1 2 2 1 0 359 358 356 357 4 23 37 40 39 37 36 34 30 27 27 26 26 25 24 23 22 21 20 17 15 13 11 10 9 8 7
354 353 353 352 352 352 352 352 352 352 351 351 352 354 356 358 359 0 1 360 358 357 358 359 359 358 357 355 354 353 353 354 356 359 360 360 360 0 360 358 358 356 359 10 25 36 39 37 36 33 30 27 25 24 24 23 23 22 21 21 20 18 16 14 12 10 9 7 6
353 352 352 352 352 351 351 350 350 350 350 350 351 352 354 356 358 359 360 359 357 358 359 0 0 359 358 357 355 353 352 352 353 355 356 357 358 359 359 359 359 357 355 359 12 28 38 37 35 33 30 26 24 23 22 21 21 20 20 19 19 19 17 15 13 11 10 8 5
353 353 353 352 352 351 351 350 350 350 350 349 350 351 352 354 357 359 359 358 357 357 358 359 360 359 359 357 356 355 353 352 351 351 352 354 355 356 357 358 358 356 353 352 2 16 31 36 35 32 29 25 23 21 20 19 19 18 18 17 17 18 17 16 15 13 11 9 6
354 353 353 353 353 352 351 351 350 350 349 349 349 350 351 353 355 357 358 357 356 356 357 359 0 0 359 358 358 356 355 352 350 348 348 349 351 352 354 355 355 355 352 348 354 4 19 33 35 31 28 25 22 20 18 17 16 16 16 15 15 16 16 16 15 14 12 10 6
355 354 354 354 354 353 353 352 351 350 350 349 349 349 350 351 354 356 356 355 354 354 355 358 1 1 1 360 359 359 357 354 351 348 346 346 347 348 350 351 352 353 351 349 348 355 7 24 33 31 27 25 22 19 17 15 14 14 14 14 14 14 15 15 15 14 12 9 5
356 355 355 355 355 355 354 353 352 351 351 350 349 349 348 350 353 356 356 354 353 352 353 356 360 1 1 0 0 0 359 357 354 350 347 345 344 345 347 349 350 350 350 349 346 348 356 11 28 32 27 24 22 19 16 14 13 12 12 12 12 13 14 14 14 13 11 8 3
357 356 356 355 355 355 355 354 353 352 352 351 349 348 348 348 351 354 356 355 353 352 352 355 358 1 1 1 0 1 0 359 357 353 349 345 344 343 344 346 347 348 348 348 344 343 348 1 19 30 27 25 23 19 16 13 11 10 10 10 11 12 13 13 13 11 9 5 1
357 357 356 356 356 356 356 356 355 354 352 351 349 348 348 348 350 353 355 355 353 352 351 354 358 1 2 1 1 1 2 2 0 357 353 349 345 343 342 343 344 345 346 346 343 341 344 354 8 22 28 26 23 20 16 13 10 10 9 9 9 10 12 13 12 9 6 3 358
357 357 357 357 357 357 357 357 356 355 354 352 350 348 348 349 350 352 354 355 355 354 353 354 357 1 2 2 2 2 2 3 2 1 357 353 348 344 341 339 340 341 344 345 344 341 340 345 358 13 27 26 24 20 16 12 10 9 9 8 8 8 9 11 10 7 4 1 357
358 358 358 358 358 358 358 358 357 356 355 353 352 350 349 349 349 350 352 355 357 357 355 355 358 1 2 2 2 1 1 1 2 2 360 356 351 345 341 338 337 338 340 343 344 342 339 339 349 2 18 24 24 21 16 11 8 8 8 8 7 7 6 7 7 5 2 359 356
359 359 359 359 360 360 359 358 358 357 357 355 354 352 349 347 347 348 351 356 359 360 359 358 359 0 1 2 1 0 359 359 359 359 359 357 353 349 343 339 336 336 337 340 342 340 338 337 341 352 5 18 22 20 16 11 8 7 8 8 8 7 6 5 4 3 0 358 355
Height
884 883 882 881 880 879 878 877 876 875 873 872 871 869 867 866 864 862 860 857 855 853 850 847 845 842 840 837 835 832 829 826 824 822 820 818 816 814 812 810 808 807 805 804 803 802 801 800 799 798 797 796 795 794 793 792 791 791 790 789 788 787 786 786 785 784 783 782 782
884 883 882 881 880 879 878 877 876 875 873 872 871 869 868 866 864 862 859 857 855 853 850 847 845 842 839 837 834 831 828 825 822 820 818 816 814 812 809 807 806 804 803 801 800 799 798 797 797 796 795 794 793 792 791 791 790 789 788 787 787 786 785 784 783 782 782 781 781
884 883 882 881 880 879 878 877 876 874 873 872 871 869 868 866 864 862 859 857 855 852 850 847 844 841 838 836 832 830 827 824 821 819 816 814 811 809 807 805 803 801 800 799 797 797 796 795 795 794 793 792 791 790 790 789 788 788 787 786 786 785 784 783 782 782 781 780 779
884 883 882 881 880 879 878 877 876 875 873 872 871 869 868 866 864 862 859 857 854 852 849 847 844 841 838 835 832 828 826 823 820 817 815 812 809 807 804 802 800 798 797 796 795 794 793 793 792 792 791 790 789 789 788 787 787 787 786 785 785 784 783 782 782 781 780 779 778
884 883 882 881 880 879 878 877 876 874 873 872 870 869 867 866 864 862 859 856 854 851 849 846 843 840 837 834 831 827 824 822 819 816 813 810 807 804 802 799 797 796 794 793 792 791 791 790 790 789 789 788 787 787 786 786 786 785 785 784 784 783 782 781 780 779 778 777 777
884 883 882 882 880 879 878 877 876 874 873 872 870 869 867 865 863 861 858 856 853 850 848 845 843 840 837 833 830 827 823 820 817 815 812 808 805 802 799 797 794 793 791 790 789 789 788 788 788 787 787 786 786 786 785 785 785 784 784 783 782 782 781 780 779 778 777 776 775
884 883 882 882 880 879 878 877 875 874 873 872 870 868 867 864 862 860 858 855 852 850 847 845 842 839 836 833 830 826 823 819 816 813 810 807 803 799 797 794 791 789 788 787 786 786 786 786 786 785 785 785 785 784 784 784 783 783 782 782 781 780 779 778 778 777 776 775 774
885 884 883 882 880 879 878 877 875 874 872 871 870 868 866 864 862 859 857 854 852 849 847 844 841 839 836 833 830 826 822 819 816 812 808 805 801 797 794 791 788 785 784 783 783 783 783 783 784 783 783 783 783 783 783 783 782 782 781 780 779 779 778 777 776 776 775 774 772
885 883 882 882 880 879 878 876 875 874 872 871 869 867 866 863 861 859 856 854 852 849 846 844 841 838 836 833 830 826 823 819 816 812 808 804 800 796 792 788 785 782 780 779 779 779 780 781 782 782 782 782 782 782 782 781 781 781 780 779 778 777 777 776 775 774 774 772 771
885 883 882 881 880 879 877 876 875 874 872 871 869 867 865 863 861 858 856 854 851 848 846 843 841 838 835 832 829 826 823 820 816 812 808 804 800 795 791 787 783 779 776 775 775 776 777 778 779 779 780 780 780 780 780 780 780 779 779 778 777 777 776 775 774 773 773 772 771
885 884 882 881 880 878 877 876 875 873 872 870 868 866 864 862 860 858 856 854 851 848 845 843 841 838 836 832 830 827 823 820 816 812 808 804 800 796 792 787 783 779 776 774 773 774 775 776 777 778 779 779 780 780 780 779 779 778 778 777 777 776 775 774 773 772 772 771 770
885 884 882 881 880 878 877 876 874 873 871 869 868 866 864 862 859 857 855 853 850 848 845 843 841 839 836 833 830 827 824 820 817 813 809 805 801 797 793 789 786 782 778 775 774 774 775 776 777 778 779 779 779 779 779 779 778 778 777 777 776 775 774 773 772 772 771 770 769
885 884 882 881 879 878 877 875 874 872 871 869 867 865 863 861 859 857 855 852 850 847 845 843 841 839 836 833 831 827 824 821 817 814 810 806 802 799 795 792 789 786 782 779 777 777 777 777 777 778 778 779 779 779 779 778 778 777 777 776 776 775 774 773 772 771 770 769 768
885 884 882 881 879 878 877 875 873 872 870 869 867 865 863 861 858 857 855 852 850 848 845 843 841 839 837 834 831 828 825 822 818 815 811 807 803 800 797 795 793 790 786 783 781 780 779 779 779 779 779 779 779 779 779 778 778 777 777 776 775 774 773 772 772 771 770 769 768
885 884 882 881 879 877 876 875 873 872 870 868 867 865 863 861 858 857 854 852 850 848 846 843 841 839 837 834 831 828 826 823 819 816 812 808 805 802 799 797 796 793 790 787 785 784 782 782 781 781 780 780 780 780 779 779 778 777 777 776 775 775 774 773 772 771 770 769 768
885 883 882 880 879 877 876 875 873 872 870 868 867 865 863 861 858 856 854 852 850 848 846 843 841 839 837 834 832 829 826 823 820 817 814 810 807 803 801 799 798 796 793 791 789 787 786 785 784 783 782 782 781 781 780 780 779 778 777 777 776 775 774 773 772 772 771 770 769
885 883 882 880 878 877 876 874 873 872 870 868 867 865 863 861 858 856 854 852 850 848 846 843 842 839 837 834 832 829 827 824 821 818 816 813 809 806 803 801 800 798 796 794 792 790 789 787 786 785 784 784 783 782 782 781 780 779 779 778 777 776 775 774 773 772 771 770 768
884 883 881 880 878 877 876 874 873 872 870 868 867 865 863 861 858 856 854 852 851 848 846 843 842 840 837 835 833 830 828 825 823 820 817 815 812 809 806 803 802 801 799 797 795 793 791 790 789 787 786 785 784 783 782 782 781 780 779 778 777 776 775 774 772 771 770 769 768
884 883 881 879 878 877 876 874 873 872 870 868 867 865 863 861 858 856 854 852 850 848 846 844 842 840 838 836 833 831 829 826 824 822 819 816 814 811 809 806 804 803 802 799 797 796 794 792 791 790 788 787 786 785 783 782 781 780 779 778 777 776 774 773 772 771 770 769 768
884 882 881 879 878 877 876 874 873 872 870 868 867 865 862 861 858 857 854 852 850 848 847 844 842 840 838 836 834 832 830 827 825 823 820 817 815 813 811 808 806 805 804 802 800 798 797 795 793 792 790 789 787 786 785 783 782 781 780 779 777 776 775 774 773 772 770 769 768
884 882 881 879 878 877 876 874 873 872 870 868 867 865 863 861 858 857 855 852 851 848 847 844 842 841 839 837 834 832 830 828 826 824 822 819 817 814 812 810 808 807 806 803 802 800 798 797 795 794 792 791 789 787 786 785 783 782 781 780 779 777 776 775 774 772 771 770 769
884 882 881 879 878 877 876 874 873 872 870 868 867 865 863 861 859 857 855 853 851 849 847 845 843 841 839 837 836 833 831 829 827 825 823 820 818 816 814 811 809 807 807 805 803 801 800 798 797 795 793 792 791 789 788 787 785 784 783 782 780 779 778 777 775 774 772 771 770
884 882 881 879 878 877 876 874 872 871 870 868 867 865 863 861 859 857 855 853 851 849 847 845 843 842 840 838 836 834 832 830 828 826 823 822 819 817 815 813 810 809 808 807 805 803 801 799 798 796 795 793 792 791 790 788 787 786 784 783 782 781 779 778 777 775 774 772 771
883 882 881 879 878 877 875 874 872 871 869 868 866 865 863 861 859 857 855 853 851 849 847 845 843 842 840 838 836 834 832 830 828 826 824 822 820 818 816 814 812 810 810 809 807 805 803 801 799 797 796 795 793 792 791 790 788 787 786 785 783 782 781 779 778 777 775 774 772
883 882 880 879 877 876 875 873 872 871 869 868 866 865 863 861 859 857 856 853 852 850 848 846 844 842 840 838 837 835 833 831 829 827 825 822 821 819 817 815 813 812 812 810 808 807 805 803 801 799 797 796 795 793 792 791 790 788 787 786 785 783 782 780 779 778 777 775 773
883 882 880 879 877 876 875 873 872 870 869 867 866 864 863 861 859 858 856 854 852 850 848 847 844 842 841 839 837 835 833 831 829 827 826 823 822 820 818 816 814 813 813 812 809 808 806 805 803 801 799 797 796 795 793 792 791 790 788 787 786 784 783 782 780 778 777 776 775
883 882 880 879 877 876 874 873 872 870 869 867 866 864 862 861 859 858 856 854 852 851 849 847 845 843 842 840 838 836 834 832 830 828 826 825 823 821 819 817 815 814 813 812 810 808 807 806 804 803 801 799 797 796 794 793 792 791 789 788 787 785 784 782 781 780 778 777 775
883 881 880 878 877 876 874 873 872 870 868 867 866 864 862 861 859 858 856 854 853 851 849 847 846 844 842 840 839 837 835 833 831 829 827 825 823 822 820 818 816 815 814 812 810 809 808 807 805 804 802 800 799 797 796 794 793 792 790 789 787 786 785 783 782 781 779 777 776
882 881 880 878 877 875 874 873 871 870 868 867 866 864 862 861 859 857 856 854 853 851 850 848 846 845 843 841 839 837 836 834 832 830 828 826 824 822 821 819 817 816 814 813 811 809 808 807 806 805 803 802 800 798 797 796 794 793 791 790 788 787 786 784 783 782 780 778 777
882 881 880 878 877 875 874 872 871 870 868 867 865 864 862 861 859 857 856 854 853 852 850 849 847 845 843 842 840 838 836 835 833 831 829 827 825 823 821 819 817 816 815 813 811 810 809 808 807 806 804 803 801 799 798 797 795 794 792 791 790 788 787 785 783 782 780 779 777
882 881 879 878 877 875 874 872 871 870 868 867 865 863 862 860 859 857 856 855 853 852 851 849 847 846 844 842 841 839 837 835 833 832 830 828 826 824 822 820 818 816 815 814 812 810 809 808 807 806 805 803 802 800 799 797 796 795 793 792 791 789 787 786 784 782 781 779 778
882 881 879 878 876 875 874 872 871 870 868 867 865 863 862 860 859 857 856 855 853 852 850 849 847 846 844 842 841 839 837 836 834 832 831 829 827 825 823 821 819 817 816 815 813 811 810 808 807 807 805 804 802 801 800 798 797 796 794 793 791 790 788 787 785 783 782 780 778
882 881 879 877 876 875 873 872 871 869 868 866 865 863 862 860 859 857 856 855 853 852 851 849 847 846 844 843 841 839 838 836 834 833 831 830 828 826 824 822 820 818 817 816 814 812 810 809 808 807 806 804 803 802 800 799 797 796 795 793 792 790 789 787 786 784 782 781 779
882 880 879 877 876 874 873 872 870 869 867 866 864 863 862 860 859 857 856 855 853 852 851 850 848 847 845 844 842 840 838 837 835 833 832 830 828 827 825 823 821 819 817 816 815 813 811 809 808 807 806 804 803 802 801 799 798 797 795 794 792 791 789 788 787 785 783 782 780
881 880 878 877 876 874 873 871 870 868 867 866 864 862 861 860 859 857 856 855 853 852 851 850 848 847 846 844 842 841 839 837 836 834 832 830 829 827 825 823 821 820 818 816 816 814 812 810 808 807 806 804 803 802 801 800 798 797 796 794 792 791 789 788 787 785 784 782 781
881 880 878 877 875 874 872 871 870 868 867 865 864 862 861 860 859 857 856 855 853 852 851 849 848 847 845 844 842 841 839 838 836 834 832 831 829 827 826 824 822 820 818 817 816 814 813 811 809 807 806 804 803 802 801 800 799 797 796 795 793 792 790 788 787 786 784 783 782
881 880 878 877 875 874 872 871 869 868 866 865 863 862 861 860 858 857 856 855 853 852 850 849 848 847 845 844 842 841 840 838 837 835 833 832 830 828 826 824 823 821 819 817 816 814 813 811 809 807 806 804 803 802 801 800 799 798 797 795 794 792 791 789 788 786 785 784 783
881 880 878 877 875 873 872 871 869 867 866 865 863 862 861 860 858 857 856 855 853 852 850 849 848 847 845 844 842 841 840 838 837 835 833 832 830 829 827 825 823 822 820 818 816 814 813 812 810 807 805 804 803 802 802 801 799 798 797 796 794 793 791 790 788 787 786 785 784
881 879 878 877 875 873 872 871 869 867 866 865 863 862 861 859 858 857 856 855 853 852 850 849 848 847 845 844 843 841 840 838 837 836 834 832 831 829 827 826 824 822 821 819 817 815 813 811 810 808 806 805 803 802 802 801 800 799 797 796 795 793 792 790 789 787 786 785 784
881 879 878 877 875 873 872 870 869 867 866 865 863 862 860 859 858 857 856 854 853 852 850 849 848 847 845 844 843 841 840 838 837 836 834 832 831 829 828 826 824 823 821 820 818 816 814 811 810 808 807 805 804 803 802 801 800 799 798 797 795 794 792 790 789 788 787 786 784
881 879 878 876 875 873 872 870 869 867 866 865 863 862 861 859 858 857 856 854 852 851 850 849 847 847 845 844 843 841 840 838 837 836 834 832 831 829 828 826 824 823 822 820 818 817 815 812 810 808 807 805 804 803 802 802 800 799 798 797 796 794 793 791 789 788 787 786 785